Regional Weather Roundup
Issued by NWS

Home | Current Version | Previous Version | Graphics & Text | Print | Product List | Glossary On
Versions: 1 2 3 4 5 6 7 8 9 10 11 12 13 14 15 16 17 18 19 20 21 22 23 24 25 26 27 28 29 30 31 32 33 34 35 36 37 38 39 40 41 42 43 44 45 46 47 48 49 50
000
ASUS43 KLMK 231202
RWRKY
KENTUCKY REGIONAL WEATHER ROUNDUP
NATIONAL WEATHER SERVICE LOUISVILLE KY
700 AM EST FRI FEB 23 2018

NOTE "FAIR" INDICATES FEW OR NO CLOUDS BELOW 12,000 FEET
WITH NO SIGNIFICANT WEATHER AND/OR OBSTRUCTIONS TO VISIBILITY.

KYZ001>023-026-027-061>063-070>075-231300-
WESTERN AND SOUTH CENTRAL KENTUCKY

CITY           SKY/WX    TMP DP  RH WIND       PRES   REMARKS
PADUCAH        LGT RAIN  60  58  92 SW12G21   30.20R
HENDERSON      RAIN      59  58  96 S20       30.17R
OWENSBORO      RAIN      60  58  92 S18       30.19R
HOPKINSVILLE   CLOUDY    62  62 100 S6        30.22F
BOWLING GREEN  LGT RAIN  61  61 100 CALM      30.27S
GLASGOW        NOT AVBL
$$

KYZ024-025-028>034-038-045-046-053-231300-
NORTH CENTRAL KENTUCKY

CITY           SKY/WX    TMP DP  RH WIND       PRES   REMARKS
LOUISVILLE/SDF LGT RAIN  55  54  96 S10       30.22F
LOUISVILLE/LOU LGT RAIN  55  55 100 S8        30.23S
FORT KNOX      LGT RAIN  56  56 100 S12       30.23F
$$

KYZ035>037-039>044-047>052-055>060-089>105-231300-
NORTHEAST KENTUCKY

CITY           SKY/WX    TMP DP  RH WIND       PRES   REMARKS
LEXINGTON      HVY RAIN  60  57  89 W12G46    30.28R FOG
COVINGTON      LGT RAIN  52  52 100 CALM      30.22S VSB 1/4
FRANKFORT      LGT RAIN  52  49  89 SE3       30.25F
$$

KYZ054-064>069-076>088-106>120-231300-
SOUTHEAST KENTUCKY

CITY           SKY/WX    TMP DP  RH WIND       PRES   REMARKS
JACKSON        FAIR      59  56  89 VRB5      30.30F
LONDON         FAIR      58  56  93 S5        30.32R
SOMERSET       FAIR      61  61 100 S5        30.32R
MIDDLESBORO    FAIR      64  58  82 S7        30.35S
MONTICELLO     NOT AVBL
$$





USA.gov is the U.S. government's official web portal to all federal, state and local government web resources and services.